EHI
0 0 0 0 0 0 0 0 0 0 0 0 0 0 0 0 0 0 0 0 0 0 1 4 6 4 1 0 0 0 0 0 0 0 0 0 0 0 0 0 0 0 0 0 0 0 0 0 0
0 0 0 0 0 0 0 0 0 0 0 0 0 0 0 0 0 0 0 0 0 0 0 3 5 3 1 0 0 0 0 0 0 0 0 0 0 0 0 0 0 0 0 0 0 0 0 0 0
0 0 0 0 0 0 0 0 0 0 0 0 0 0 0 0 0 0 0 0 0 0 0 2 4 3 1 0 0 0 0 0 0 0 0 0 0 0 0 0 0 0 0 0 0 0 0 0 0
0 0 0 0 0 0 0 0 0 0 0 0 0 0 0 0 0 0 0 0 0 0 0 2 4 3 1 0 0 0 0 0 0 0 0 0 0 0 0 0 0 0 0 0 0 0 0 0 0
0 0 0 0 0 0 0 0 0 0 0 0 0 0 0 0 0 0 0 0 0 0 0 1 4 3 1 0 0 0 0 0 0 0 0 0 0 0 0 0 0 0 0 0 0 0 0 0 0
0 0 0 0 0 0 0 0 0 0 0 0 0 0 0 0 0 0 0 0 0 0 0 1 2 2 1 0 0 0 0 0 0 0 0 0 0 0 0 0 0 0 0 0 0 0 0 0 0
0 0 0 0 0 0 0 0 0 0 0 0 0 0 0 0 0 0 0 0 0 0 0 0 1 1 0 0 0 0 0 0 0 0 0 0 0 0 0 0 0 0 0 0 0 0 0 0 0
0 0 0 0 0 0 0 0 0 0 0 0 0 0 0 0 0 0 0 0 0 0 0 0 0 0 0 0 0 0 0 0 0 0 0 0 0 0 0 0 0 0 0 0 0 0 0 0 0
0 0 0 0 0 0 0 0 0 0 0 0 0 0 0 0 0 0 0 0 0 0 0 0 0 0 0 0 0 0 0 0 0 0 0 0 0 0 0 0 0 0 0 0 0 0 0 0 0
0 0 0 0 0 0 0 0 0 0 0 0 0 0 0 0 0 0 0 0 0 0 0 0 0 0 0 0 0 0 0 0 0 0 0 0 0 0 0 0 0 0 0 0 0 0 0 0 0
0 0 0 0 0 0 0 0 0 0 0 0 0 0 0 0 0 0 0 0 0 0 0 0 0 0 0 0 0 0 0 0 0 0 0 0 0 0 0 0 0 0 0 0 0 0 0 0 0
0 0 0 0 0 0 0 0 0 0 0 0 0 0 0 0 0 0 0 0 0 0 0 0 0 0 0 0 0 0 0 0 0 0 0 0 0 0 0 0 0 0 0 0 0 0 0 0 0
0 0 0 0 0 0 0 0 0 0 0 0 0 0 0 0 0 0 0 0 0 0 0 0 0 0 0 0 0 0 0 0 0 0 0 0 0 0 0 0 0 0 0 0 0 0 0 0 0
0 0 0 0 0 0 0 0 0 0 0 0 0 0 0 0 0 0 0 0 0 0 0 0 0 0 0 0 0 0 0 0 0 0 0 0 0 0 0 0 0 0 0 0 0 0 0 0 0
0 0 0 0 0 0 0 0 0 0 0 0 0 0 0 0 0 0 0 0 0 0 0 0 0 0 0 0 0 0 0 0 0 0 0 0 0 0 0 0 0 0 0 0 0 0 0 0 0
0 0 0 0 0 0 0 0 0 0 0 0 0 0 0 0 0 0 0 0 0 0 0 0 0 0 0 0 0 0 0 0 0 0 0 0 0 0 0 0 0 0 0 0 0 0 0 0 0
0 0 0 0 0 0 0 0 0 0 0 0 0 0 0 0 0 0 0 0 0 0 0 0 0 0 0 0 0 0 0 0 0 0 0 0 0 0 0 0 0 0 0 0 0 0 0 0 0
0 0 0 0 0 0 0 0 0 0 0 0 0 0 0 0 0 0 0 0 0 0 0 0 0 0 0 0 0 0 0 0 0 0 0 0 0 0 0 0 0 0 0 0 0 0 0 0 0
0 0 0 0 0 0 0 0 0 0 0 0 0 0 0 0 0 0 0 0 0 0 0 0 0 0 0 0 0 0 0 0 0 0 0 0 0 0 0 0 0 0 0 0 0 0 0 0 0
0 0 0 0 0 0 0 0 0 0 0 0 0 0 0 0 0 0 0 0 0 0 0 0 0 0 0 0 0 0 0 0 0 0 0 0 0 0 0 0 0 0 0 0 0 0 0 0 0
0 0 0 0 0 0 0 0 0 0 0 0 0 0 0 0 0 0 0 0 0 0 0 0 0 0 0 0 0 0 0 0 0 0 0 0 0 0 0 0 0 0 0 0 0 0 0 0 0
0 0 0 0 0 0 0 0 0 0 0 0 0 0 0 0 0 0 0 0 0 0 0 0 0 0 0 0 0 0 0 0 0 0 0 0 0 0 0 0 0 0 0 0 0 0 0 0 0
0 0 0 0 0 0 0 0 0 0 0 0 0 0 0 0 0 0 0 0 0 0 0 0 0 0 0 0 0 0 0 0 0 0 0 0 0 0 0 0 0 0 0 0 0 0 0 0 0
0 0 0 0 0 0 0 0 0 0 0 0 0 0 0 0 0 0 0 0 0 0 0 0 0 0 0 0 0 0 0 0 0 0 0 0 0 0 0 0 0 0 0 0 0 0 0 0 0
0 0 0 0 0 0 0 0 0 0 0 0 0 0 0 0 0 0 0 0 0 0 0 0 0 0 0 0 0 0 0 0 0 0 0 0 0 0 0 0 0 0 0 0 0 0 0 0 0
0 0 0 0 0 0 0 0 0 0 0 0 0 0 0 0 0 0 0 0 0 0 0 0 0 0 0 0 0 0 0 0 0 0 0 0 0 0 0 0 0 0 0 0 0 0 0 0 0
0 0 0 0 0 0 0 0 0 0 0 0 0 0 0 0 0 0 0 0 0 0 0 0 0 0 0 0 0 0 0 0 0 0 0 0 0 0 0 0 0 0 0 0 0 0 0 0 0
0 0 0 0 0 0 0 0 0 0 0 0 0 0 0 0 0 0 0 0 0 0 0 0 0 0 0 0 0 0 0 0 0 0 0 0 0 0 0 0 0 0 0 0 0 0 0 0 0
0 0 0 0 0 0 0 0 0 0 0 0 0 0 0 0 0 0 0 0 0 0 0 0 0 0 0 0 0 0 0 0 0 0 0 0 0 0 0 0 0 0 0 0 0 0 0 0 0
0 0 0 0 0 0 0 0 0 0 0 0 0 0 0 0 0 0 0 0 0 0 0 0 0 0 0 0 0 0 0 0 0 0 0 0 0 0 0 0 0 0 0 0 0 0 0 0 0
Wind_Speed
13 8 3 5 6 4 3 5 3 5 5 4 2 4 5 3 2 3 1 8 13 15 13 16 17 17 16 15 14 12 11 10 10 9 9 9 8 8 7 6 5 4 3 3 4 5 6 6 5
6 5 5 6 5 1 5 5 3 3 4 5 2 5 6 3 2 4 4 8 16 15 12 12 16 17 16 15 14 12 11 10 10 10 9 9 8 8 7 6 5 4 3 3 3 3 4 4 3
7 2 4 4 2 5 5 3 3 4 4 3 3 5 5 3 3 4 7 12 12 11 10 12 17 17 17 15 14 12 11 10 10 10 9 8 8 7 7 5 4 3 2 2 1 1 1 2 2
3 4 5 3 6 8 6 6 6 5 5 4 3 4 2 1 4 4 10 13 12 10 9 12 17 17 16 15 14 12 11 10 10 9 8 8 8 7 6 5 4 3 2 1 0 1 1 2 4
4 3 1 3 8 8 5 6 7 4 2 4 3 3 1 4 2 7 10 12 12 10 8 12 17 17 17 16 14 13 12 11 10 9 8 7 7 6 6 6 5 3 2 1 2 2 3 4 5
3 4 3 6 9 8 6 6 5 4 0 3 3 3 1 1 4 6 9 10 12 12 10 11 16 16 16 16 15 13 12 11 10 9 8 7 6 6 6 7 6 4 3 3 3 4 5 6 6
4 4 6 7 7 8 8 4 4 4 2 1 1 4 2 2 5 6 8 9 9 10 10 8 9 11 14 14 14 13 12 11 10 9 7 5 5 5 6 7 7 6 5 5 5 6 7 8 9
4 4 6 6 7 9 5 3 4 4 3 3 4 6 5 6 5 5 7 8 8 8 9 9 8 8 8 9 13 12 11 10 10 8 7 7 6 5 5 6 7 8 7 7 7 8 9 10 10
2 3 8 8 9 7 3 3 3 2 2 1 2 5 6 4 5 6 5 5 6 8 8 9 9 8 8 8 10 10 11 10 9 7 8 7 3 3 3 6 8 9 10 9 9 9 10 10 10
4 8 9 6 6 5 4 3 4 1 1 0 2 2 3 5 6 7 7 9 10 11 10 9 11 10 9 8 6 5 5 5 5 4 5 4 3 3 4 7 10 10 10 9 10 10 10 8 4
5 7 5 7 8 7 6 5 4 3 5 5 3 3 4 5 6 8 8 9 11 11 12 12 11 11 10 6 5 4 3 4 4 5 5 3 2 2 2 2 3 4 5 4 5 5 4 3 3
5 5 4 5 7 8 8 5 6 6 9 6 5 5 5 7 9 10 10 9 7 8 11 13 12 11 10 8 6 5 4 4 4 5 5 3 2 2 1 1 1 1 1 2 2 2 3 4 4
7 8 11 11 10 10 10 10 8 10 9 7 5 5 6 7 7 7 7 7 8 9 10 11 12 12 10 8 6 6 5 5 4 3 4 4 3 2 2 1 1 1 1 2 2 3 4 4 5
5 6 9 11 12 11 13 15 11 11 9 8 6 6 7 8 8 6 5 4 5 8 9 8 10 11 10 8 6 5 5 4 3 3 4 5 4 4 4 4 4 4 3 3 4 4 4 4 4
4 7 10 9 9 6 8 17 17 10 8 8 8 8 8 8 7 8 7 6 5 4 5 6 8 9 10 8 7 5 4 5 4 4 5 7 6 6 5 5 5 4 4 5 4 5 4 5 6
4 5 7 5 6 7 9 22 10 7 10 11 10 9 9 8 8 7 6 5 5 4 4 5 6 8 8 7 6 5 6 7 6 6 7 9 9 8 7 6 5 5 5 5 4 5 4 5 5
4 6 7 6 6 7 12 14 7 9 9 10 10 9 9 8 7 7 6 5 5 4 5 5 7 9 10 10 9 9 9 9 7 7 7 9 10 9 8 6 5 5 5 5 5 4 4 4 6
6 6 6 6 4 8 15 18 9 7 9 10 10 9 8 9 10 7 5 5 4 4 5 6 8 11 13 11 10 9 10 8 7 7 8 10 9 9 7 6 6 5 5 5 4 4 4 3 5
6 9 12 8 6 8 15 20 14 11 10 10 10 9 8 8 5 5 5 5 5 5 6 7 10 11 11 10 8 8 7 7 7 7 9 10 9 9 8 6 6 5 5 5 5 4 4 4 4
11 16 16 12 7 10 14 20 14 15 15 13 13 12 10 7 6 5 5 4 5 6 8 9 10 9 9 8 7 6 7 6 6 6 8 9 9 8 7 6 5 5 4 6 6 5 3 3 4
14 15 14 13 12 11 13 18 18 16 14 15 14 13 12 15 14 9 7 6 7 7 8 10 10 11 11 11 11 10 8 5 5 6 6 7 8 7 7 6 5 5 5 4 4 4 4 3 3
17 11 13 14 11 8 8 12 12 13 14 16 16 13 13 13 11 10 9 8 8 7 9 11 11 12 11 11 12 12 9 7 4 4 5 6 7 7 6 6 5 5 4 4 4 4 3 3 3
9 5 10 12 12 14 13 13 10 8 17 19 17 15 15 15 15 14 11 10 9 9 10 10 12 11 9 9 11 12 9 7 6 6 7 6 5 6 6 6 5 4 4 4 4 4 4 2 2
9 6 9 9 9 17 20 15 11 10 17 14 16 16 16 15 14 12 9 10 9 9 10 10 12 11 10 10 10 12 12 11 9 7 6 4 3 4 5 5 4 4 3 3 3 3 4 3 3
11 7 6 8 10 13 12 14 15 12 12 17 18 17 18 18 18 16 15 13 12 12 11 11 13 12 10 11 10 10 10 10 9 7 6 4 3 2 3 3 3 3 3 4 3 3 4 4 4
15 14 9 7 8 7 11 15 12 12 10 10 12 17 20 19 17 17 16 14 13 13 12 13 14 12 11 12 10 9 9 7 6 6 5 4 3 2 2 3 3 4 4 4 4 3 4 4 4
10 14 10 6 7 6 10 8 7 3 4 9 15 18 19 18 17 16 14 12 13 13 12 13 14 12 11 11 11 9 8 8 7 6 5 4 2 2 3 3 3 4 4 4 4 3 5 5 4
8 6 7 9 7 8 8 8 9 8 10 14 19 19 18 16 15 15 13 12 10 11 10 11 12 13 11 10 9 9 7 7 7 6 5 4 3 3 3 3 4 4 4 5 4 5 5 5 4
12 10 9 8 8 5 5 7 8 14 17 20 19 19 20 19 18 15 13 11 11 11 11 11 11 12 10 9 9 9 7 7 6 5 4 3 2 3 3 3 4 5 5 5 5 6 6 5 5
12 12 12 7 8 6 3 6 3 10 15 18 17 16 15 16 15 14 14 13 12 12 11 11 10 11 10 9 9 8 7 6 6 5 4 3 3 3 3 4 4 5 6 6 6 7 7 6 7
Wind_Direction
317 328 11 47 46 40 275 263 272 320 308 280 253 104 112 119 175 187 127 145 144 151 161 161 161 157 153 149 144 142 141 140 140 136 135 131 127 122 117 112 106 100 89 61 48 45 55 73 92
318 339 35 54 78 327 269 263 279 263 275 290 325 74 87 81 123 128 125 151 147 153 159 162 163 160 156 153 151 150 149 149 149 144 141 138 136 132 127 119 109 102 95 77 60 51 52 56 65
321 19 70 72 153 204 237 251 295 289 304 328 8 68 92 114 158 176 160 153 145 153 158 164 164 163 160 158 158 156 155 156 155 150 150 149 147 145 139 127 117 112 106 90 63 46 35 16 353
19 31 56 101 236 232 230 271 282 292 332 353 20 62 54 49 186 174 143 151 148 155 158 165 166 166 164 163 163 162 160 161 162 160 160 162 163 158 151 146 142 138 137 131 69 314 308 303 301
64 82 96 230 245 252 245 256 251 246 303 340 24 98 46 341 120 132 140 155 154 158 163 168 169 169 168 167 167 166 165 166 168 167 169 172 171 168 164 165 167 167 184 236 275 289 289 292 291
65 93 160 225 247 268 280 266 238 209 277 356 49 108 225 284 145 159 149 156 160 160 164 170 173 171 171 171 171 170 170 172 172 175 177 178 181 175 177 181 188 195 217 251 278 287 286 285 285
146 148 200 214 243 268 267 269 232 175 135 218 117 125 254 237 195 171 146 149 157 161 162 168 173 173 172 172 173 174 175 176 177 181 181 170 166 180 191 198 210 225 241 256 267 275 280 283 284
169 160 211 209 222 252 259 251 239 182 188 207 127 147 215 224 192 155 132 143 156 163 168 170 171 172 172 173 177 177 177 178 181 183 175 172 182 201 217 220 230 241 250 258 266 272 277 279 282
138 173 215 206 203 235 267 276 278 235 162 154 123 177 210 175 145 134 128 143 168 178 180 176 175 176 174 174 183 180 180 184 185 188 190 191 202 223 247 243 241 245 251 257 266 273 277 279 279
186 219 221 209 206 230 277 282 276 256 198 232 30 32 110 134 157 169 174 180 187 193 192 184 182 181 177 182 179 179 183 188 189 193 201 199 204 229 248 251 242 242 249 260 273 281 285 284 282
211 226 219 233 247 258 270 272 265 213 222 217 186 174 162 175 189 200 204 199 199 193 191 190 188 184 180 183 173 180 184 188 198 204 208 203 207 244 261 264 262 260 267 274 287 298 298 292 286
259 253 242 237 243 254 259 260 258 223 220 214 193 189 191 197 205 210 213 216 211 197 194 191 190 186 185 182 179 180 185 190 197 207 207 189 183 200 207 214 262 273 284 291 298 307 320 327 324
262 270 274 274 274 268 270 257 249 249 242 237 226 212 215 220 222 220 212 210 206 204 201 189 186 186 183 178 180 182 186 188 191 186 185 170 157 155 127 89 51 20 11 12 14 8 6 7 3
265 278 271 269 270 270 270 271 252 243 237 240 249 254 243 235 228 218 203 185 189 202 202 188 181 181 174 174 174 172 172 166 153 148 144 136 125 110 89 68 52 40 37 43 46 32 23 17 7
309 299 286 263 257 258 277 268 251 239 228 232 242 250 249 245 230 211 199 181 172 176 184 179 175 166 165 164 160 147 142 130 116 106 100 99 94 89 82 68 53 40 36 42 43 26 26 21 7
307 280 264 253 228 229 232 256 254 235 219 231 241 246 244 244 227 214 192 171 163 150 146 158 158 147 146 137 125 111 103 99 93 89 85 84 84 83 77 67 54 42 39 34 38 22 17 13 358
248 254 256 268 230 218 223 253 234 230 219 232 244 246 239 236 222 209 189 167 159 153 146 138 134 131 123 111 103 95 92 89 87 85 83 81 78 77 76 65 52 46 44 32 27 27 19 5 349
219 237 256 242 258 227 244 255 250 253 227 230 242 246 238 223 211 194 177 150 135 136 133 126 121 121 118 110 103 96 87 84 81 79 80 79 75 71 72 65 49 45 45 30 19 13 10 3 340
277 278 277 278 296 274 259 262 253 241 242 242 243 238 231 221 201 177 157 133 117 117 122 124 124 127 126 123 117 110 101 95 85 79 77 75 73 68 65 61 49 45 48 36 22 8 2 352 346
251 265 273 286 278 275 271 269 258 237 231 229 234 230 213 188 178 179 154 131 127 126 123 122 125 124 121 117 111 108 109 97 89 82 72 69 68 64 66 62 56 46 44 33 26 21 7 348 4
241 244 255 267 296 288 280 273 254 244 233 231 230 222 198 184 181 174 155 140 130 128 129 125 122 118 118 117 113 110 101 91 79 74 69 63 67 65 64 62 60 49 46 32 19 24 24 350 337
248 239 248 257 263 264 244 270 255 233 231 232 229 218 200 184 171 162 152 144 137 130 122 120 120 120 121 122 126 128 125 119 111 105 90 72 64 64 61 58 56 47 39 28 7 22 7 359 344
240 235 243 251 253 261 254 263 265 219 225 226 221 210 194 177 166 160 153 143 133 127 121 119 117 115 113 113 118 116 112 111 110 102 92 78 62 58 57 56 49 37 25 16 9 360 355 346 329
236 254 257 249 245 247 238 237 261 221 219 217 213 200 180 164 154 144 135 130 124 121 118 119 116 111 110 109 109 117 121 123 119 112 107 89 70 51 44 49 39 26 13 359 352 348 346 336 327
208 216 227 215 216 238 207 216 244 238 218 210 203 187 167 158 152 149 146 142 138 131 125 122 119 115 112 109 107 112 118 120 122 123 117 109 88 62 35 37 27 12 353 349 350 344 335 329 329
203 204 214 220 217 226 191 220 238 242 242 212 184 163 155 155 155 153 151 146 142 135 129 126 123 120 116 112 109 107 108 109 111 113 114 111 110 104 57 37 21 4 354 351 347 333 323 327 319
195 208 222 270 278 239 207 225 258 227 200 156 149 152 156 155 154 151 147 144 142 137 133 131 127 122 118 116 112 107 106 108 110 108 103 102 100 95 56 31 12 356 348 342 338 321 312 314 309
212 182 175 212 244 231 207 210 213 186 174 156 156 158 154 151 150 149 148 144 138 133 127 123 126 125 122 119 117 116 111 111 112 107 103 101 87 62 37 15 360 347 338 331 324 311 304 309 305
191 199 201 203 241 256 194 232 211 183 174 167 166 162 158 157 156 154 149 142 134 130 129 127 127 126 122 117 114 115 112 111 108 105 106 101 76 45 20 358 345 333 322 316 310 302 303 303 297
209 207 197 211 223 231 230 256 275 180 171 165 160 159 156 153 152 150 147 142 140 139 137 134 132 129 126 123 118 116 115 111 107 105 99 85 58 23 359 343 331 320 315 308 303 301 308 296 290